TimeCST,TemperatureF,Dew PointF,Humidity,Sea Level PressureIn,VisibilityMPH,Wind Direction,Wind SpeedMPH,Gust SpeedMPH,PrecipitationIn,Events,Conditions,WindDirDegrees,DateUTC
12:54 AM,25.0,18.0,75,30.15,10.0,NW,5.8,-,N/A,,Clear,320,2012-11-29 06:54:00
1:54 AM,26.1,19.0,75,30.16,10.0,WNW,3.5,-,N/A,,Clear,290,2012-11-29 07:54:00
2:54 AM,26.1,19.0,75,30.15,10.0,West,4.6,-,N/A,,Clear,280,2012-11-29 08:54:00
3:54 AM,25.0,19.0,78,30.15,9.0,WNW,4.6,-,N/A,,Clear,300,2012-11-29 09:54:00
4:54 AM,19.9,17.1,89,30.16,8.0,Calm,Calm,-,N/A,,Clear,0,2012-11-29 10:54:00
5:54 AM,17.1,15.1,92,30.17,6.0,Calm,Calm,-,N/A,,Clear,0,2012-11-29 11:54:00
6:54 AM,17.1,14.0,88,30.18,6.0,Calm,Calm,-,N/A,,Mostly Cloudy,0,2012-11-29 12:54:00
7:54 AM,21.9,19.0,89,30.20,6.0,Calm,Calm,-,N/A,,Overcast,0,2012-11-29 13:54:00
8:45 AM,24.8,21.2,86,30.15,7.0,Calm,Calm,-,N/A,,Overcast,0,2012-11-29 14:45:00
8:54 AM,25.0,21.0,85,30.21,7.0,NNW,3.5,-,N/A,,Overcast,330,2012-11-29 14:54:00
10:54 AM,27.0,24.1,89,30.21,9.0,NE,6.9,-,N/A,,Overcast,50,2012-11-29 16:54:00
11:54 AM,28.0,24.1,85,30.20,10.0,NNE,5.8,-,N/A,,Overcast,30,2012-11-29 17:54:00
12:54 PM,27.0,24.1,89,30.21,10.0,ENE,5.8,-,N/A,,Overcast,70,2012-11-29 18:54:00
1:54 PM,27.0,24.1,89,30.21,10.0,NE,4.6,-,N/A,,Overcast,50,2012-11-29 19:54:00
2:54 PM,27.0,23.0,85,30.22,10.0,NE,8.1,-,N/A,,Overcast,40,2012-11-29 20:54:00
3:13 PM,28.4,23.0,80,30.17,10.0,NNE,5.8,-,N/A,,Overcast,30,2012-11-29 21:13:00
3:36 PM,28.4,23.0,80,30.18,10.0,NNE,3.5,-,N/A,,Overcast,30,2012-11-29 21:36:00
3:54 PM,28.0,21.9,78,30.24,10.0,NE,5.8,-,N/A,,Overcast,50,2012-11-29 21:54:00
4:54 PM,27.0,21.0,78,30.26,10.0,NE,3.5,-,N/A,,Overcast,40,2012-11-29 22:54:00
5:54 PM,27.0,21.0,78,30.27,10.0,NE,3.5,-,N/A,,Overcast,40,2012-11-29 23:54:00
6:54 PM,27.0,21.0,78,30.28,10.0,NE,4.6,-,N/A,,Overcast,50,2012-11-30 00:54:00
7:54 PM,26.1,21.0,81,30.30,10.0,ENE,9.2,16.1,N/A,,Overcast,60,2012-11-30 01:54:00
8:54 PM,25.0,19.9,81,30.30,10.0,East,10.4,-,N/A,,Overcast,80,2012-11-30 02:54:00
9:54 PM,24.1,19.9,84,30.30,10.0,Variable,6.9,-,N/A,,Overcast,0,2012-11-30 03:54:00
10:54 PM,24.1,19.0,81,30.30,10.0,Variable,6.9,-,N/A,,Overcast,0,2012-11-30 04:54:00
11:54 PM,24.1,19.0,81,30.32,10.0,ENE,9.2,-,N/A,,Overcast,60,2012-11-30 05:54:00